• In Deutschland
  • Länderverzeichnis
  • Für 7 Tage
  • Wassertemperatur
  • Satellitenkarten
  • Wetterkarte
  • Widgets
  • user-avatar
    Anmelden

    Stündliche Wetter Uige

    Heute, 26 Juli, Mittwoch

    Zeit Temperatur Niederschläge Wind Luftdruck Luftfeuchtigkeit
    00:00 +21°C° 0 mm 1 m/S 693 mmHg 75%
    01:00 +20°C° 0 mm 1 m/S 693 mmHg 80%
    02:00 +19°C° 0 mm 1 m/S 692 mmHg 83%
    03:00 +19°C° 0 mm 1 m/S 692 mmHg 87%
    04:00 +18°C° 0 mm 1 m/S 692 mmHg 90%
    05:00 +19°C° 0 mm 1 m/S 692 mmHg 89%
    06:00 +19°C° 0 mm 1 m/S 692 mmHg 88%
    07:00 +19°C° 0 mm 1 m/S 692 mmHg 87%
    08:00 +23°C° 0 mm 1 m/S 693 mmHg 72%
    09:00 +26°C° 0 mm 1 m/S 694 mmHg 58%
    10:00 +29°C° 0 mm 1 m/S 695 mmHg 43%
    11:00 +32°C° 0 mm 1 m/S 694 mmHg 36%
    12:00 +34°C° 0 mm 1 m/S 694 mmHg 29%
    13:00 +36°C° 0 mm 1 m/S 694 mmHg 22%
    14:00 +36°C° 0 mm 1 m/S 693 mmHg 21%
    15:00 +35°C° 0 mm 1 m/S 692 mmHg 21%
    16:00 +35°C° 0 mm 1 m/S 692 mmHg 20%
    17:00 +32°C° 0 mm 1 m/S 691 mmHg 26%
    18:00 +30°C° 0 mm 1 m/S 691 mmHg 31%
    19:00 +27°C° 0 mm 1 m/S 691 mmHg 37%
    20:00 +26°C° 0 mm 1 m/S 692 mmHg 44%
    21:00 +25°C° 0 mm 1 m/S 692 mmHg 51%
    22:00 +23°C° 0 mm 1 m/S 692 mmHg 58%
    23:00 +22°C° 0 mm 1 m/S 692 mmHg 63%

    Morgen, 27 Juli, Donnerstag

    Zeit Temperatur Niederschläge Wind Luftdruck Luftfeuchtigkeit
    00:00 +21°C° 0 mm 1 m/S 692 mmHg 69%
    01:00 +21°C° 0 mm 1 m/S 692 mmHg 75%
    02:00 +20°C° 0 mm 1 m/S 692 mmHg 79%
    03:00 +19°C° 0 mm 1 m/S 692 mmHg 84%
    04:00 +19°C° 0 mm 1 m/S 691 mmHg 89%
    05:00 +19°C° 0 mm 1 m/S 692 mmHg 88%
    06:00 +19°C° 0 mm 1 m/S 692 mmHg 87%
    07:00 +19°C° 0 mm 1 m/S 692 mmHg 86%
    08:00 +23°C° 0 mm 1 m/S 693 mmHg 69%
    09:00 +27°C° 0 mm 1 m/S 694 mmHg 52%
    10:00 +31°C° 0 mm 1 m/S 695 mmHg 36%
    11:00 +34°C° 0 mm 1 m/S 694 mmHg 31%
    12:00 +36°C° 0 mm 1 m/S 694 mmHg 26%
    13:00 +39°C° 0 mm 1 m/S 693 mmHg 21%
    14:00 +39°C° 0 mm 1 m/S 692 mmHg 21%
    15:00 +37°C° 0 mm 1 m/S 692 mmHg 21%
    16:00 +36°C° 0 mm 1 m/S 691 mmHg 21%
    17:00 +34°C° 0 mm 1 m/S 691 mmHg 25%
    18:00 +31°C° 0 mm 1 m/S 691 mmHg 29%
    19:00 +29°C° 0 mm 1 m/S 691 mmHg 33%
    20:00 +27°C° 0 mm 1 m/S 692 mmHg 38%
    21:00 +26°C° 0 mm 1 m/S 692 mmHg 43%
    22:00 +25°C° 0 mm 1 m/S 692 mmHg 48%
    23:00 +23°C° 0 mm 1 m/S 692 mmHg 54%

    übermorgen, 28 Juli, Freitag

    Zeit Temperatur Niederschläge Wind Luftdruck Luftfeuchtigkeit
    00:00 +22°C° 0 mm 1 m/S 692 mmHg 59%
    01:00 +21°C° 0 mm 1 m/S 692 mmHg 64%
    02:00 +21°C° 0 mm 1 m/S 691 mmHg 69%
    03:00 +20°C° 0 mm 1 m/S 691 mmHg 73%
    04:00 +20°C° 0 mm 1 m/S 690 mmHg 77%
    05:00 +20°C° 0 mm 1 m/S 691 mmHg 77%
    06:00 +20°C° 0 mm 1 m/S 691 mmHg 77%
    07:00 +20°C° 0 mm 1 m/S 691 mmHg 76%
    08:00 +24°C° 0 mm 1 m/S 692 mmHg 61%
    09:00 +28°C° 0 mm 1 m/S 693 mmHg 45%
    10:00 +32°C° 0 mm 1 m/S 694 mmHg 30%
    11:00 +35°C° 0 mm 1 m/S 694 mmHg 26%
    12:00 +37°C° 0 mm 1 m/S 693 mmHg 21%
    13:00 +40°C° 0 mm 1 m/S 693 mmHg 17%
    14:00 +40°C° 0 mm 1 m/S 692 mmHg 17%
    15:00 +39°C° 0 mm 1 m/S 691 mmHg 17%
    16:00 +38°C° 0 mm 2 m/S 690 mmHg 17%
    17:00 +36°C° 0 mm 2 m/S 691 mmHg 21%
    18:00 +34°C° 0 mm 2 m/S 691 mmHg 25%
    19:00 +30°C° 0 mm 2 m/S 691 mmHg 29%
    20:00 +28°C° 0 mm 2 m/S 692 mmHg 37%
    21:00 +26°C° 0 mm 2 m/S 692 mmHg 46%
    22:00 +24°C° 0 mm 2 m/S 693 mmHg 54%
    23:00 +23°C° 0 mm 2 m/S 692 mmHg 61%

    29 Juli, Samstag

    Zeit Temperatur Niederschläge Wind Luftdruck Luftfeuchtigkeit
    00:00 +21°C° 0 mm 2 m/S 692 mmHg 68%
    01:00 +20°C° 0 mm 2 m/S 691 mmHg 75%
    02:00 +20°C° 0 mm 1 m/S 691 mmHg 79%
    03:00 +19°C° 0 mm 1 m/S 691 mmHg 84%
    04:00 +18°C° 0 mm 1 m/S 691 mmHg 88%
    05:00 +18°C° 0 mm 1 m/S 691 mmHg 87%
    06:00 +19°C° 0 mm 1 m/S 692 mmHg 86%
    07:00 +19°C° 0 mm 1 m/S 693 mmHg 85%
    08:00 +23°C° 0 mm 1 m/S 693 mmHg 68%
    09:00 +27°C° 0 mm 1 m/S 694 mmHg 51%
    10:00 +31°C° 0 mm 1 m/S 695 mmHg 34%
    11:00 +33°C° 0 mm 1 m/S 694 mmHg 29%
    12:00 +35°C° 0 mm 1 m/S 693 mmHg 24%
    13:00 +39°C° 0 mm 1 m/S 693 mmHg 19%
    14:00 +37°C° 0 mm 1 m/S 692 mmHg 19%
    15:00 +37°C° 0 mm 2 m/S 691 mmHg 19%
    16:00 +36°C° 0 mm 2 m/S 691 mmHg 20%
    17:00 +34°C° 0 mm 2 m/S 691 mmHg 24%
    18:00 +31°C° 0 mm 2 m/S 691 mmHg 28%
    19:00 +29°C° 0 mm 2 m/S 692 mmHg 32%
    20:00 +27°C° 0 mm 2 m/S 692 mmHg 41%
    21:00 +25°C° 0 mm 2 m/S 692 mmHg 49%
    22:00 +24°C° 0 mm 2 m/S 693 mmHg 58%
    23:00 +21°C° 0 mm 2 m/S 692 mmHg 64%

    30 Juli, Sonntag

    Zeit Temperatur Niederschläge Wind Luftdruck Luftfeuchtigkeit
    00:00 +20°C° 0 mm 2 m/S 692 mmHg 71%
    01:00 +19°C° 0 mm 2 m/S 692 mmHg 77%
    02:00 +19°C° 0 mm 1 m/S 691 mmHg 81%
    03:00 +19°C° 0 mm 1 m/S 691 mmHg 85%
    04:00 +18°C° 0 mm 1 m/S 691 mmHg 89%
    05:00 +18°C° 0 mm 1 m/S 692 mmHg 88%
    06:00 +18°C° 0 mm 1 m/S 692 mmHg 86%
    07:00 +17°C° 0 mm 0 m/S 693 mmHg 85%
    08:00 +23°C° 0 mm 1 m/S 693 mmHg 67%
    09:00 +27°C° 0 mm 1 m/S 694 mmHg 49%
    10:00 +31°C° 0 mm 1 m/S 694 mmHg 32%
    11:00 +34°C° 0 mm 1 m/S 694 mmHg 27%
    12:00 +36°C° 0 mm 1 m/S 693 mmHg 21%
    13:00 +39°C° 0 mm 1 m/S 692 mmHg 16%
    14:00 +39°C° 0 mm 1 m/S 692 mmHg 16%
    15:00 +37°C° 0 mm 1 m/S 691 mmHg 16%
    16:00 +37°C° 0 mm 1 m/S 690 mmHg 16%
    17:00 +34°C° 0 mm 1 m/S 691 mmHg 20%
    18:00 +31°C° 0 mm 1 m/S 691 mmHg 25%
    19:00 +29°C° 0 mm 1 m/S 691 mmHg 29%
    20:00 +27°C° 0 mm 2 m/S 691 mmHg 38%
    21:00 +25°C° 0 mm 2 m/S 692 mmHg 47%
    22:00 +24°C° 0 mm 2 m/S 692 mmHg 56%
    23:00 +23°C° 0 mm 2 m/S 692 mmHg 63%

    31 Juli, Montag

    Zeit Temperatur Niederschläge Wind Luftdruck Luftfeuchtigkeit
    00:00 +21°C° 0 mm 2 m/S 692 mmHg 71%
    01:00 +20°C° 0 mm 2 m/S 691 mmHg 78%
    02:00 +19°C° 0 mm 2 m/S 691 mmHg 82%
    03:00 +19°C° 0 mm 1 m/S 691 mmHg 86%
    04:00 +19°C° 0 mm 1 m/S 691 mmHg 89%
    05:00 +19°C° 0 mm 1 m/S 691 mmHg 88%
    06:00 +19°C° 0 mm 1 m/S 692 mmHg 87%
    07:00 +19°C° 0 mm 1 m/S 692 mmHg 85%
    08:00 +23°C° 0 mm 1 m/S 693 mmHg 70%
    09:00 +26°C° 0 mm 1 m/S 694 mmHg 54%
    10:00 +30°C° 0 mm 1 m/S 694 mmHg 39%
    11:00 +32°C° 0 mm 1 m/S 694 mmHg 33%
    12:00 +35°C° 0 mm 1 m/S 693 mmHg 26%
    13:00 +37°C° 0 mm 1 m/S 692 mmHg 20%
    14:00 +37°C° 0 mm 1 m/S 692 mmHg 19%
    15:00 +37°C° 0 mm 1 m/S 691 mmHg 19%
    16:00 +36°C° 0 mm 1 m/S 691 mmHg 18%
    17:00 +35°C° 0 mm 2 m/S 691 mmHg 23%
    18:00 +31°C° 0 mm 2 m/S 691 mmHg 29%
    19:00 +28°C° 0 mm 2 m/S 691 mmHg 34%
    20:00 +26°C° 0 mm 2 m/S 692 mmHg 43%
    21:00 +25°C° 0 mm 2 m/S 692 mmHg 53%
    22:00 +23°C° 0 mm 2 m/S 693 mmHg 62%
    23:00 +21°C° 0 mm 2 m/S 692 mmHg 69%
    Mehr zeigen